TimeCST,TemperatureF,Dew PointF,Humidity,Sea Level PressureIn,VisibilityMPH,Wind Direction,Wind SpeedMPH,Gust SpeedMPH,PrecipitationIn,Events,Conditions,WindDirDegrees,DateUTC
12:15 AM,28.4,23.5,82,29.96,10.0,Calm,Calm,-,N/A,,Overcast,0,2013-02-05 06:15:00
12:35 AM,28.6,23.0,80,29.96,10.0,Calm,Calm,-,N/A,,Overcast,0,2013-02-05 06:35:00
12:55 AM,28.4,23.7,83,29.95,10.0,SSE,3.5,-,N/A,,Overcast,150,2013-02-05 06:55:00
1:15 AM,28.4,23.9,83,29.95,10.0,Calm,Calm,-,N/A,,Overcast,0,2013-02-05 07:15:00
1:35 AM,28.6,23.9,83,29.97,10.0,SW,4.6,-,N/A,,Overcast,230,2013-02-05 07:35:00
1:55 AM,28.4,23.4,81,29.97,10.0,Calm,Calm,-,N/A,,Overcast,0,2013-02-05 07:55:00
2:15 AM,28.4,23.9,83,29.96,7.0,Calm,Calm,-,N/A,,Overcast,0,2013-02-05 08:15:00
2:35 AM,28.8,24.1,83,29.96,10.0,SSW,3.5,-,N/A,,Overcast,210,2013-02-05 08:35:00
2:55 AM,28.8,23.7,81,29.96,10.0,WSW,3.5,-,N/A,,Overcast,240,2013-02-05 08:55:00
3:15 AM,28.4,23.9,83,29.95,10.0,Calm,Calm,-,N/A,,Mostly Cloudy,0,2013-02-05 09:15:00
3:35 AM,28.4,23.9,83,29.93,10.0,South,3.5,-,N/A,,Scattered Clouds,180,2013-02-05 09:35:00
3:55 AM,28.4,24.3,84,29.93,10.0,South,4.6,-,N/A,,Clear,190,2013-02-05 09:55:00
4:15 AM,28.4,24.6,86,29.93,7.0,South,5.8,-,N/A,,Clear,190,2013-02-05 10:15:00
4:35 AM,28.4,24.6,86,29.94,7.0,SSW,5.8,-,N/A,,Scattered Clouds,200,2013-02-05 10:35:00
4:55 AM,28.2,24.6,86,29.93,7.0,South,6.9,-,N/A,,Mostly Cloudy,190,2013-02-05 10:55:00
5:15 AM,28.2,24.6,86,29.93,7.0,South,8.1,-,N/A,,Overcast,190,2013-02-05 11:15:00
5:35 AM,28.0,24.6,87,29.92,7.0,SSW,9.2,-,N/A,,Mostly Cloudy,200,2013-02-05 11:35:00
5:55 AM,28.0,24.8,88,29.92,7.0,South,6.9,-,N/A,,Mostly Cloudy,190,2013-02-05 11:55:00
6:15 AM,28.0,24.8,88,29.92,7.0,SSW,5.8,-,N/A,,Overcast,200,2013-02-05 12:15:00
6:35 AM,28.0,24.8,88,29.92,7.0,SSW,5.8,-,N/A,,Overcast,200,2013-02-05 12:35:00
6:55 AM,28.2,25.2,88,29.93,7.0,SSW,6.9,-,N/A,,Mostly Cloudy,210,2013-02-05 12:55:00
7:15 AM,28.2,25.2,88,29.93,7.0,SSW,5.8,-,N/A,,Overcast,200,2013-02-05 13:15:00
7:35 AM,28.4,25.5,89,29.91,5.0,South,6.9,-,N/A,,Mostly Cloudy,190,2013-02-05 13:35:00
7:55 AM,28.8,25.7,88,29.92,5.0,SSW,8.1,-,N/A,,Mostly Cloudy,210,2013-02-05 13:55:00
8:15 AM,29.1,26.1,88,29.91,4.0,South,8.1,-,N/A,,Mostly Cloudy,190,2013-02-05 14:15:00
8:35 AM,29.8,26.4,87,29.91,5.0,South,8.1,-,N/A,,Scattered Clouds,190,2013-02-05 14:35:00
8:55 AM,30.6,26.8,86,29.92,5.0,SSW,6.9,-,N/A,,Scattered Clouds,210,2013-02-05 14:55:00
9:15 AM,31.6,27.3,84,29.92,5.0,SW,9.2,-,N/A,,Scattered Clouds,220,2013-02-05 15:15:00
9:35 AM,32.0,27.5,83,29.92,5.0,SW,8.1,-,N/A,,Haze,220,2013-02-05 15:35:00
9:55 AM,32.9,28.0,82,29.91,7.0,SW,11.5,-,N/A,,Clear,220,2013-02-05 15:55:00
10:15 AM,34.7,28.4,78,29.91,7.0,SW,12.7,18.4,N/A,,Clear,230,2013-02-05 16:15:00
10:35 AM,36.5,28.9,74,29.91,7.0,SW,15.0,-,N/A,,Clear,230,2013-02-05 16:35:00
10:55 AM,37.6,29.8,74,29.90,10.0,SW,13.8,-,N/A,,Clear,220,2013-02-05 16:55:00
11:15 AM,39.2,29.8,69,29.90,10.0,SW,15.0,-,N/A,,Clear,230,2013-02-05 17:15:00
11:35 AM,40.5,30.4,67,29.89,10.0,WSW,15.0,21.9,N/A,,Clear,240,2013-02-05 17:35:00
11:55 AM,41.0,30.6,66,29.89,10.0,WSW,12.7,-,N/A,,Clear,240,2013-02-05 17:55:00
12:15 PM,42.4,31.3,65,29.88,10.0,WSW,12.7,20.7,N/A,,Clear,240,2013-02-05 18:15:00
12:35 PM,43.9,31.5,62,29.87,10.0,WSW,16.1,-,N/A,,Clear,250,2013-02-05 18:35:00
12:55 PM,44.8,32.0,61,29.88,10.0,West,12.7,-,N/A,,Clear,260,2013-02-05 18:55:00
1:15 PM,46.6,32.2,57,29.89,10.0,West,12.7,18.4,N/A,,Clear,270,2013-02-05 19:15:00
1:35 PM,47.7,32.2,55,29.88,10.0,West,12.7,16.1,N/A,,Clear,280,2013-02-05 19:35:00
1:55 PM,47.8,31.8,54,29.89,10.0,WNW,10.4,21.9,N/A,,Clear,290,2013-02-05 19:55:00
2:15 PM,48.2,32.0,54,29.90,10.0,West,13.8,20.7,N/A,,Clear,280,2013-02-05 20:15:00
2:35 PM,48.2,32.2,54,29.90,10.0,West,15.0,20.7,N/A,,Clear,280,2013-02-05 20:35:00
2:55 PM,48.6,32.0,53,29.91,10.0,West,12.7,20.7,N/A,,Clear,280,2013-02-05 20:55:00
3:15 PM,48.6,32.0,53,29.92,10.0,WNW,12.7,20.7,N/A,,Clear,290,2013-02-05 21:15:00
3:35 PM,48.7,32.0,52,29.93,10.0,WNW,10.4,21.9,N/A,,Clear,300,2013-02-05 21:35:00
3:55 PM,48.4,32.2,54,29.93,10.0,NW,13.8,18.4,N/A,,Clear,310,2013-02-05 21:55:00
4:15 PM,47.3,32.5,57,29.95,10.0,NW,15.0,19.6,N/A,,Clear,320,2013-02-05 22:15:00
4:35 PM,45.9,32.7,60,29.96,10.0,NW,11.5,17.3,N/A,,Clear,310,2013-02-05 22:35:00
4:55 PM,45.0,32.0,60,29.97,10.0,NW,9.2,17.3,N/A,,Clear,310,2013-02-05 22:55:00
5:15 PM,43.0,32.0,65,29.98,10.0,NW,9.2,-,N/A,,Clear,320,2013-02-05 23:15:00
5:35 PM,41.0,32.0,70,30.00,10.0,NW,8.1,-,N/A,,Clear,320,2013-02-05 23:35:00
5:55 PM,38.8,31.3,74,30.01,10.0,NW,8.1,-,N/A,,Clear,320,2013-02-05 23:55:00
6:15 PM,38.3,31.5,76,30.02,10.0,NW,6.9,-,N/A,,Clear,320,2013-02-06 00:15:00
6:35 PM,37.6,31.1,77,30.03,10.0,NW,5.8,-,N/A,,Clear,310,2013-02-06 00:35:00
6:55 PM,37.8,31.3,77,30.03,10.0,NW,8.1,-,N/A,,Clear,320,2013-02-06 00:55:00
7:15 PM,38.5,31.6,76,30.04,10.0,NNW,10.4,-,N/A,,Clear,340,2013-02-06 01:15:00
7:35 PM,38.3,31.6,77,30.06,10.0,NNW,8.1,-,N/A,,Clear,340,2013-02-06 01:35:00
7:55 PM,37.0,31.1,79,30.07,10.0,NNW,5.8,-,N/A,,Clear,340,2013-02-06 01:55:00
8:15 PM,35.1,30.4,83,30.07,10.0,NNW,5.8,-,N/A,,Clear,330,2013-02-06 02:15:00
8:35 PM,34.7,30.0,83,30.08,10.0,North,5.8,-,N/A,,Clear,350,2013-02-06 02:35:00
8:55 PM,35.6,30.2,81,30.09,10.0,NW,3.5,-,N/A,,Clear,320,2013-02-06 02:55:00
9:15 PM,34.9,30.2,83,30.10,10.0,NNW,4.6,-,N/A,,Clear,330,2013-02-06 03:15:00
9:35 PM,33.4,29.7,86,30.10,10.0,NNW,4.6,-,N/A,,Clear,330,2013-02-06 03:35:00
9:55 PM,32.4,29.1,88,30.11,10.0,Calm,Calm,-,N/A,,Clear,0,2013-02-06 03:55:00
10:15 PM,31.6,28.8,89,30.10,10.0,NNW,8.1,-,N/A,,Clear,340,2013-02-06 04:15:00
10:35 PM,32.9,29.3,87,30.11,10.0,SW,3.5,-,N/A,,Clear,220,2013-02-06 04:35:00
10:55 PM,32.2,30.0,92,30.12,10.0,Calm,Calm,-,N/A,,Clear,0,2013-02-06 04:55:00
11:15 PM,30.7,28.4,91,30.13,7.0,SSW,3.5,-,N/A,,Clear,200,2013-02-06 05:15:00
11:35 PM,29.8,27.7,92,30.13,7.0,SSW,4.6,-,N/A,,Clear,200,2013-02-06 05:35:00
11:55 PM,30.0,28.2,93,30.13,7.0,Calm,Calm,-,N/A,,Clear,0,2013-02-06 05:55:00